RYR37SC GCTS-EPKK

Flight info

Callsign RYR37SC
Flight time N/A
Altitude 34000
Route KORA1E KORAL UG5 SONSO DCT NIRAL UN871 OSDAM UM985 BARPA DCT XAVIR DCT PIMOS/N0440F360 DCT RIXUR DCT PEPAS DCT ARPEX DCT KOSEL DCT BUDIT DCT ETURA DCT TOSTO DCT OLPOS DCT BEGOX DCT LASPO DCT SOPET DCT DIKUT DCT TORDU DCT LOTOS DCT EBROX DCT PEXOT DCT RODRA DCT BCN DCT SALON DCT AGENA DCT BODEQ DCT LUMAS DCT UNANA DCT STP DCT RAPED DCT PIGOS DCT EKSID DCT NOSTA DCT NOPMU DCT LAGEN DCT ROBAS DCT NOBMI DCT MOVOR DCT TNT DCT MOBDO/N0443F370 DCT LEDVA DCT NETIR NETI4G
Aircraft B738/M-SDE2E3FGHIRWXY/LB1

Departure

Time N/A
Airport Tenerife Sur Airport (GCTS)

Arrival

Time 2026-04-30 21:57
Airport Kraków John Paul II International Airport (EPKK)
Time Latitude Longitude Altitude Speed Heading
2026-04-30 17:39 31.06735 -10.90550 36139 ft 463 kts 37°
2026-04-30 17:42 31.29596 -10.64111 36103 ft 462 kts 37°
2026-04-30 17:43 31.40989 -10.50865 36110 ft 462 kts 37°
2026-04-30 17:44 31.54605 -10.34970 36099 ft 461 kts 37°
2026-04-30 17:47 31.75037 -10.10990 36103 ft 462 kts 37°
2026-04-30 17:48 31.90828 -9.92344 36099 ft 461 kts 37°
2026-04-30 17:50 32.08909 -9.70879 36091 ft 461 kts 38°
2026-04-30 17:52 32.22421 -9.54752 36091 ft 460 kts 38°
2026-04-30 17:54 32.42582 -9.30556 36090 ft 459 kts 38°
2026-04-30 17:56 32.60464 -9.08960 36108 ft 460 kts 38°
2026-04-30 17:58 32.73042 -8.93686 36088 ft 458 kts 38°
2026-04-30 18:00 32.90760 -8.72063 36095 ft 455 kts 39°
2026-04-30 18:01 33.01765 -8.58565 36093 ft 454 kts 39°
2026-04-30 18:02 33.14911 -8.42373 36099 ft 454 kts 39°
2026-04-30 18:03 33.21807 -8.34786 36091 ft 441 kts 25°
2026-04-30 18:04 33.29611 -8.29014 36102 ft 440 kts 24°
2026-04-30 18:06 33.50398 -8.13397 36090 ft 441 kts 25°
2026-04-30 18:08 33.68457 -7.99677 36093 ft 441 kts 25°
2026-04-30 18:10 33.89185 -7.83848 36094 ft 442 kts 25°
2026-04-30 18:11 34.07304 -7.69935 36098 ft 443 kts 25°
2026-04-30 18:13 34.20299 -7.59911 36106 ft 444 kts 26°
2026-04-30 18:14 34.33340 -7.49817 36097 ft 447 kts 26°
2026-04-30 18:15 34.49107 -7.37560 36100 ft 451 kts 26°
2026-04-30 18:16 34.59674 -7.29314 36098 ft 452 kts 27°
2026-04-30 18:17 34.64968 -7.25172 36096 ft 453 kts 27°
2026-04-30 18:18 34.72912 -7.18947 36091 ft 454 kts 28°
2026-04-30 18:18 34.78221 -7.14779 36106 ft 455 kts 28°
2026-04-30 18:19 34.83553 -7.10587 36103 ft 458 kts 29°
2026-04-30 18:19 34.88915 -7.06364 36098 ft 460 kts 29°
2026-04-30 18:20 34.94304 -7.02112 36102 ft 462 kts 29°
2026-04-30 18:20 34.99628 -6.97905 36096 ft 464 kts 29°
2026-04-30 18:21 35.05046 -6.93617 36109 ft 465 kts 29°
2026-04-30 18:21 35.10476 -6.89312 36092 ft 466 kts 30°
2026-04-30 18:22 35.15872 -6.85027 36091 ft 465 kts 30°
2026-04-30 18:22 35.24047 -6.78521 36091 ft 465 kts 31°
2026-04-30 18:23 35.29469 -6.74200 36093 ft 465 kts 31°
2026-04-30 18:23 35.34511 -6.69319 36096 ft 468 kts 46°
2026-04-30 18:24 35.38232 -6.62795 36102 ft 469 kts 60°
2026-04-30 18:24 35.39820 -6.59309 36087 ft 469 kts 60°
2026-04-30 18:25 35.43045 -6.52345 36080 ft 470 kts 59°
2026-04-30 18:25 35.48120 -6.42039 36082 ft 471 kts 58°
2026-04-30 18:26 35.53347 -6.31823 36078 ft 472 kts 58°
2026-04-30 18:27 35.58537 -6.21552 36076 ft 472 kts 58°
2026-04-30 18:28 35.63712 -6.11255 36081 ft 472 kts 58°
2026-04-30 18:28 35.68878 -6.00949 36073 ft 471 kts 59°
2026-04-30 18:29 35.75418 -5.87158 36082 ft 470 kts 65°
2026-04-30 18:30 35.80980 -5.72611 36073 ft 469 kts 65°
2026-04-30 18:31 35.85267 -5.61781 36055 ft 469 kts 64°
2026-04-30 18:32 35.89655 -5.51000 36072 ft 469 kts 64°
2026-04-30 18:33 35.94023 -5.40186 36078 ft 470 kts 65°
2026-04-30 18:33 35.98386 -5.29329 36060 ft 471 kts 66°
2026-04-30 18:34 36.02810 -5.18460 36075 ft 474 kts 65°
2026-04-30 18:35 36.05867 -5.11214 36061 ft 476 kts 65°
2026-04-30 18:35 36.08920 -5.03927 36061 ft 478 kts 65°
2026-04-30 18:36 36.13448 -4.93044 36053 ft 480 kts 65°
2026-04-30 18:36 36.17204 -4.86202 36047 ft 484 kts 48°
2026-04-30 18:37 36.19507 -4.83233 36067 ft 484 kts 46°
2026-04-30 18:37 36.24236 -4.77296 36057 ft 484 kts 46°
2026-04-30 18:38 36.28934 -4.71339 36043 ft 483 kts 47°
2026-04-30 18:38 36.33588 -4.65349 36044 ft 482 kts 47°
2026-04-30 18:39 36.38215 -4.59351 36037 ft 481 kts 47°
2026-04-30 18:39 36.42828 -4.53359 36038 ft 479 kts 47°
2026-04-30 18:40 36.47427 -4.47377 36028 ft 478 kts 47°
2026-04-30 18:40 36.52018 -4.41397 36033 ft 477 kts 47°
2026-04-30 18:41 36.56595 -4.35425 36025 ft 477 kts 47°
2026-04-30 18:41 36.61167 -4.29448 36025 ft 477 kts 47°
2026-04-30 18:42 36.65737 -4.23461 36029 ft 477 kts 47°
2026-04-30 18:42 36.72590 -4.14464 36037 ft 478 kts 47°
2026-04-30 18:45 36.96992 -3.82226 36063 ft 483 kts 48°
2026-04-30 18:46 37.01591 -3.76112 36061 ft 483 kts 48°
2026-04-30 18:46 37.06190 -3.69987 36058 ft 483 kts 48°
2026-04-30 18:47 37.10781 -3.63863 36078 ft 482 kts 48°
2026-04-30 18:47 37.15429 -3.57817 36082 ft 481 kts 47°
2026-04-30 18:48 37.20100 -3.51809 36077 ft 481 kts 47°
2026-04-30 18:48 37.24753 -3.45790 36102 ft 480 kts 47°
2026-04-30 18:49 37.29394 -3.39767 36092 ft 480 kts 47°
2026-04-30 18:49 37.34032 -3.33739 36090 ft 480 kts 47°
2026-04-30 18:50 37.38661 -3.27710 36095 ft 479 kts 47°
2026-04-30 18:50 37.43296 -3.21663 36096 ft 480 kts 47°
2026-04-30 18:51 37.47936 -3.15599 36094 ft 482 kts 47°
2026-04-30 18:51 37.52587 -3.09507 36086 ft 483 kts 47°
2026-04-30 18:52 37.57216 -3.03434 36067 ft 484 kts 47°
2026-04-30 18:52 37.61839 -2.97369 36076 ft 484 kts 47°
2026-04-30 18:53 37.66478 -2.91283 36076 ft 484 kts 47°
2026-04-30 18:53 37.71138 -2.85152 36076 ft 484 kts 47°
2026-04-30 18:54 37.75788 -2.79025 36082 ft 483 kts 47°
2026-04-30 18:54 37.80419 -2.72891 36095 ft 482 kts 47°
2026-04-30 18:55 37.85036 -2.66755 36082 ft 481 kts 48°
2026-04-30 18:55 37.91932 -2.57569 36102 ft 479 kts 48°
2026-04-30 18:56 37.98808 -2.48390 36113 ft 478 kts 48°
2026-04-30 18:57 38.05672 -2.39219 36114 ft 479 kts 48°
2026-04-30 18:57 38.10249 -2.33087 36109 ft 478 kts 48°
2026-04-30 18:58 38.17106 -2.23877 36102 ft 478 kts 47°
2026-04-30 18:59 38.23770 -2.14399 36090 ft 480 kts 53°
2026-04-30 19:00 38.31922 -2.00875 36089 ft 483 kts 53°
2026-04-30 19:01 38.40135 -1.87538 36069 ft 485 kts 53°
2026-04-30 19:02 38.46372 -1.77398 36062 ft 483 kts 53°
2026-04-30 19:03 38.54630 -1.63914 36054 ft 480 kts 53°
2026-04-30 19:04 38.62815 -1.50490 36051 ft 477 kts 53°
2026-04-30 19:05 38.70946 -1.37099 36083 ft 476 kts 53°
2026-04-30 19:06 38.79046 -1.23707 36085 ft 475 kts 53°
2026-04-30 19:06 38.85113 -1.13636 36071 ft 476 kts 53°
2026-04-30 19:07 38.91189 -1.03517 36083 ft 479 kts 53°
2026-04-30 19:08 38.99262 -0.90022 36069 ft 481 kts 53°
2026-04-30 19:09 39.05368 -0.79781 36073 ft 481 kts 53°
2026-04-30 19:09 39.10028 -0.73638 36079 ft 480 kts 38°
2026-04-30 19:10 39.20425 -0.62821 36063 ft 481 kts 38°
2026-04-30 19:11 39.28149 -0.54566 36054 ft 480 kts 38°
2026-04-30 19:12 39.33416 -0.49260 36047 ft 480 kts 35°
2026-04-30 19:12 39.38759 -0.44179 36074 ft 480 kts 34°
2026-04-30 19:13 39.49460 -0.33845 36077 ft 480 kts 35°
2026-04-30 19:14 39.54789 -0.28634 36072 ft 480 kts 35°
2026-04-30 19:14 39.60116 -0.23417 36084 ft 479 kts 35°
2026-04-30 19:15 39.65437 -0.18197 36064 ft 479 kts 35°
2026-04-30 19:15 39.73401 -0.10367 36068 ft 478 kts 35°
2026-04-30 19:16 39.78699 -0.05145 36076 ft 477 kts 36°
2026-04-30 19:17 39.86205 0.03097 36086 ft 476 kts 46°
2026-04-30 19:17 39.92878 0.12651 36075 ft 474 kts 47°
2026-04-30 19:18 39.99608 0.22074 36073 ft 473 kts 46°
2026-04-30 19:19 40.04091 0.28330 36096 ft 472 kts 46°
2026-04-30 19:19 40.10802 0.37711 36089 ft 471 kts 46°
2026-04-30 19:20 40.15264 0.43969 36085 ft 470 kts 46°
2026-04-30 19:21 40.21944 0.53361 36092 ft 470 kts 46°
2026-04-30 19:22 40.30841 0.65916 36088 ft 471 kts 46°
2026-04-30 19:23 40.44134 0.84785 36089 ft 470 kts 46°
2026-04-30 19:24 40.50780 0.94263 36096 ft 470 kts 46°
2026-04-30 19:25 40.61753 1.09998 36101 ft 469 kts 46°
2026-04-30 19:26 40.70548 1.22686 36100 ft 468 kts 46°
2026-04-30 19:27 40.77136 1.32203 36106 ft 468 kts 46°
2026-04-30 19:28 40.83713 1.41730 36102 ft 468 kts 46°
2026-04-30 19:29 40.92464 1.54475 36113 ft 468 kts 46°
2026-04-30 19:30 41.01196 1.67262 36107 ft 469 kts 46°
2026-04-30 19:31 41.09929 1.80091 36112 ft 469 kts 46°
2026-04-30 19:31 41.16475 1.89731 36107 ft 469 kts 46°
2026-04-30 19:32 41.20099 1.95085 36101 ft 469 kts 46°
2026-04-30 19:32 41.24382 2.01423 36105 ft 469 kts 46°
2026-04-30 19:33 41.28666 2.07969 36096 ft 471 kts 53°
2026-04-30 19:33 41.31646 2.15703 36102 ft 472 kts 72°
2026-04-30 19:34 41.33216 2.24184 36111 ft 473 kts 77°
2026-04-30 19:35 41.35378 2.37005 36106 ft 474 kts 77°
2026-04-30 19:35 41.36868 2.45550 36116 ft 474 kts 76°
2026-04-30 19:36 41.38374 2.54112 36116 ft 475 kts 76°
2026-04-30 19:36 41.40627 2.66986 36118 ft 476 kts 76°
2026-04-30 19:37 41.42122 2.75593 36111 ft 477 kts 76°
2026-04-30 19:37 41.43611 2.84208 36119 ft 478 kts 76°
2026-04-30 19:38 41.45095 2.92841 36121 ft 478 kts 76°
2026-04-30 19:38 41.46552 3.01350 36120 ft 479 kts 76°
2026-04-30 19:39 41.48027 3.10006 36119 ft 479 kts 76°
2026-04-30 19:39 41.49496 3.18665 36128 ft 479 kts 76°
2026-04-30 19:40 41.50944 3.27340 36123 ft 479 kts 76°
2026-04-30 19:40 41.52379 3.36020 36125 ft 479 kts 76°
2026-04-30 19:41 41.53813 3.44711 36126 ft 480 kts 76°
2026-04-30 19:41 41.55245 3.53411 36125 ft 480 kts 76°
2026-04-30 19:42 41.56685 3.62112 36125 ft 480 kts 76°
2026-04-30 19:42 41.58120 3.70819 36125 ft 480 kts 76°
2026-04-30 19:43 41.59546 3.79528 36126 ft 480 kts 76°
2026-04-30 19:44 41.61660 3.92557 36125 ft 480 kts 76°
2026-04-30 19:44 41.63033 4.01140 36127 ft 481 kts 76°
2026-04-30 19:45 41.64422 4.09875 36126 ft 481 kts 77°
2026-04-30 19:45 41.65808 4.18620 36125 ft 481 kts 77°
2026-04-30 19:46 41.67188 4.27372 36128 ft 481 kts 76°
2026-04-30 19:46 41.68561 4.36126 36126 ft 481 kts 76°
2026-04-30 19:47 41.69929 4.44890 36135 ft 482 kts 76°
2026-04-30 19:47 41.71292 4.53672 36130 ft 482 kts 76°
2026-04-30 19:48 41.72776 4.62420 36118 ft 482 kts 68°
2026-04-30 19:48 41.74118 4.66521 36156 ft 481 kts 57°
2026-04-30 19:48 41.75940 4.70254 36249 ft 478 kts 46°
2026-04-30 19:48 41.78192 4.73489 36412 ft 473 kts 39°
2026-04-30 19:49 41.80548 4.76559 36663 ft 471 kts 39°
2026-04-30 19:49 41.85277 4.82616 37135 ft 470 kts 39°
2026-04-30 19:49 41.87628 4.85655 37326 ft 470 kts 39°
2026-04-30 19:50 41.89973 4.88718 37548 ft 470 kts 39°
2026-04-30 19:50 41.92305 4.91788 37754 ft 469 kts 39°
2026-04-30 19:50 41.94629 4.94866 37959 ft 469 kts 39°
2026-04-30 19:50 41.96946 4.97944 38123 ft 469 kts 39°
2026-04-30 19:51 42.01514 5.04023 38140 ft 471 kts 39°
2026-04-30 19:51 42.06120 5.10171 38136 ft 468 kts 39°
2026-04-30 19:52 42.10731 5.16333 38157 ft 466 kts 39°
2026-04-30 19:52 42.15319 5.22476 38144 ft 464 kts 39°
2026-04-30 19:53 42.19889 5.28607 38147 ft 463 kts 39°
2026-04-30 19:53 42.24449 5.34738 38157 ft 462 kts 39°
2026-04-30 19:54 42.29004 5.40874 38174 ft 463 kts 39°
2026-04-30 19:54 42.33567 5.47034 38160 ft 464 kts 39°
2026-04-30 19:55 42.38138 5.53220 38159 ft 465 kts 39°
2026-04-30 19:55 42.42715 5.59429 38159 ft 467 kts 39°
2026-04-30 19:56 42.47304 5.65668 38161 ft 468 kts 39°
2026-04-30 19:56 42.51898 5.71926 38169 ft 469 kts 39°
2026-04-30 19:57 42.56498 5.78207 38163 ft 470 kts 39°
2026-04-30 19:57 42.61096 5.84500 38166 ft 469 kts 39°
2026-04-30 19:58 42.65686 5.90796 38170 ft 468 kts 39°
2026-04-30 19:58 42.70262 5.97087 38167 ft 467 kts 40°
2026-04-30 19:59 42.74718 6.03226 38172 ft 466 kts 40°
2026-04-30 20:00 42.81536 6.12646 38176 ft 465 kts 39°
2026-04-30 20:00 42.86090 6.18896 38199 ft 462 kts 37°
2026-04-30 20:01 42.93402 6.27346 38183 ft 458 kts 33°
2026-04-30 20:01 42.98323 6.32880 38182 ft 458 kts 34°
2026-04-30 20:02 43.05618 6.41277 38203 ft 457 kts 35°
2026-04-30 20:03 43.12889 6.49715 38193 ft 457 kts 35°
2026-04-30 20:03 43.17727 6.55338 38181 ft 456 kts 35°
2026-04-30 20:04 43.22452 6.61146 38172 ft 460 kts 44°
2026-04-30 20:05 43.28146 6.71840 38194 ft 463 kts 51°
2026-04-30 20:05 43.33760 6.82594 38185 ft 461 kts 50°
2026-04-30 20:06 43.37525 6.89722 38189 ft 461 kts 50°
2026-04-30 20:06 43.41277 6.96869 38183 ft 460 kts 50°
2026-04-30 20:07 43.44956 7.03905 38188 ft 460 kts 50°
2026-04-30 20:08 43.50518 7.14572 38182 ft 458 kts 50°
2026-04-30 20:08 43.54251 7.21752 38184 ft 457 kts 50°
2026-04-30 20:09 43.57946 7.28875 38184 ft 456 kts 50°
2026-04-30 20:09 43.63471 7.39554 38185 ft 455 kts 51°
2026-04-30 20:10 43.68971 7.50208 38193 ft 453 kts 51°
2026-04-30 20:11 43.74416 7.60793 38210 ft 452 kts 51°
2026-04-30 20:11 43.78066 7.67935 38200 ft 451 kts 51°
2026-04-30 20:12 43.83975 7.77928 38208 ft 442 kts 34°
2026-04-30 20:13 43.88846 7.83018 38229 ft 442 kts 33°
2026-04-30 20:13 43.93735 7.88207 38232 ft 444 kts 34°
2026-04-30 20:14 43.98416 7.93875 38240 ft 449 kts 40°
2026-04-30 20:14 44.02854 7.99970 38262 ft 450 kts 41°
2026-04-30 20:15 44.07228 8.05986 38249 ft 450 kts 40°
2026-04-30 20:15 44.11700 8.12065 38266 ft 449 kts 40°
2026-04-30 20:16 44.16172 8.18121 38259 ft 449 kts 41°
2026-04-30 20:16 44.20638 8.24180 38257 ft 448 kts 41°
2026-04-30 20:17 44.25086 8.30230 38261 ft 446 kts 41°
2026-04-30 20:17 44.29513 8.36267 38272 ft 444 kts 41°
2026-04-30 20:18 44.33925 8.42297 38279 ft 443 kts 41°
2026-04-30 20:18 44.38325 8.48321 38252 ft 442 kts 41°
2026-04-30 20:19 44.41921 8.53402 38234 ft 442 kts 43°
2026-04-30 20:19 44.46087 8.59719 38228 ft 441 kts 44°
2026-04-30 20:20 44.50897 8.67079 38224 ft 440 kts 44°
2026-04-30 20:20 44.54375 8.72367 38247 ft 440 kts 44°
2026-04-30 20:21 44.58525 8.78664 38237 ft 440 kts 44°
2026-04-30 20:21 44.62676 8.84967 38239 ft 440 kts 44°
2026-04-30 20:22 44.66796 8.91236 38266 ft 440 kts 44°
2026-04-30 20:22 44.70942 8.97562 38261 ft 440 kts 44°
2026-04-30 20:23 44.75009 9.03784 38279 ft 439 kts 44°
2026-04-30 20:23 44.79129 9.10099 38291 ft 438 kts 44°
2026-04-30 20:24 44.83241 9.16416 38331 ft 437 kts 44°
2026-04-30 20:24 44.87340 9.22727 38297 ft 435 kts 44°
2026-04-30 20:25 44.93431 9.32135 38284 ft 430 kts 44°
2026-04-30 20:26 44.99454 9.41466 38279 ft 427 kts 44°
2026-04-30 20:26 45.05420 9.50741 38282 ft 423 kts 44°
2026-04-30 20:27 45.13298 9.63036 38274 ft 420 kts 44°
2026-04-30 20:28 45.21124 9.75385 38281 ft 423 kts 45°
2026-04-30 20:30 45.30562 9.91554 38287 ft 428 kts 46°
2026-04-30 20:31 45.41952 10.11067 38293 ft 433 kts 46°
2026-04-30 20:32 45.51588 10.27669 38302 ft 436 kts 47°
2026-04-30 20:33 45.57372 10.37684 38310 ft 435 kts 47°
2026-04-30 20:34 45.63128 10.47684 38316 ft 433 kts 47°
2026-04-30 20:35 45.68744 10.57806 38328 ft 432 kts 49°
2026-04-30 20:35 45.74200 10.68028 38304 ft 430 kts 49°
2026-04-30 20:36 45.77829 10.74796 38300 ft 427 kts 49°
2026-04-30 20:37 45.83288 10.84711 38311 ft 421 kts 45°
2026-04-30 20:37 45.87244 10.90874 38322 ft 419 kts 44°
2026-04-30 20:38 45.91206 10.96999 38309 ft 418 kts 44°
2026-04-30 20:38 45.95054 11.03032 38318 ft 416 kts 44°
2026-04-30 20:39 46.00903 11.12261 38321 ft 416 kts 45°
2026-04-30 20:40 46.06678 11.21630 38326 ft 418 kts 46°
2026-04-30 20:40 46.10492 11.27961 38296 ft 418 kts 46°
2026-04-30 20:41 46.16205 11.37435 38315 ft 418 kts 46°
2026-04-30 20:41 46.20024 11.43770 38312 ft 419 kts 46°
2026-04-30 20:42 46.23820 11.50084 38299 ft 419 kts 46°
2026-04-30 20:43 46.29561 11.59658 38312 ft 421 kts 46°
2026-04-30 20:43 46.33392 11.66068 38311 ft 420 kts 46°
2026-04-30 20:44 46.39126 11.75688 38313 ft 421 kts 46°
2026-04-30 20:45 46.46445 11.88915 38291 ft 420 kts 51°
2026-04-30 20:45 46.49840 11.95792 38280 ft 418 kts 51°
2026-04-30 20:46 46.56543 12.09272 38296 ft 413 kts 51°
2026-04-30 20:47 46.61595 12.19378 38322 ft 410 kts 51°
2026-04-30 20:48 46.66621 12.29451 38328 ft 410 kts 51°
2026-04-30 20:48 46.69966 12.36184 38320 ft 412 kts 51°
2026-04-30 20:49 46.73312 12.42937 38320 ft 412 kts 52°
2026-04-30 20:50 46.78338 12.53112 38312 ft 412 kts 51°
2026-04-30 20:50 46.81686 12.59906 38284 ft 412 kts 52°
2026-04-30 20:51 46.85000 12.66649 38336 ft 412 kts 52°
2026-04-30 20:51 46.90016 12.76884 38348 ft 413 kts 52°
2026-04-30 20:52 46.93360 12.83732 38341 ft 414 kts 52°
2026-04-30 20:53 46.98372 12.94026 38348 ft 413 kts 52°
2026-04-30 20:53 47.01642 13.00765 38327 ft 412 kts 52°
2026-04-30 20:54 47.06610 13.11028 38364 ft 410 kts 52°
2026-04-30 20:55 47.11541 13.21256 38330 ft 409 kts 52°
2026-04-30 20:55 47.14810 13.28054 38352 ft 407 kts 52°
2026-04-30 20:56 47.19711 13.38281 38339 ft 408 kts 52°
2026-04-30 20:57 47.24583 13.48486 38355 ft 405 kts 53°
2026-04-30 20:57 47.27816 13.55278 38378 ft 405 kts 53°
2026-04-30 20:58 47.31051 13.62091 38015 ft 406 kts 53°
2026-04-30 20:58 47.32661 13.65487 37739 ft 402 kts 53°
2026-04-30 20:58 47.34249 13.68845 37493 ft 397 kts 53°
2026-04-30 20:58 47.35827 13.72184 37439 ft 397 kts 53°
2026-04-30 20:59 47.40578 13.82257 37391 ft 398 kts 53°
2026-04-30 21:00 47.46835 13.95580 37401 ft 394 kts 53°
2026-04-30 21:01 47.51462 14.05473 37405 ft 395 kts 53°
2026-04-30 21:02 47.56143 14.15520 37411 ft 396 kts 53°
2026-04-30 21:02 47.59265 14.22241 37423 ft 397 kts 53°
2026-04-30 21:03 47.62391 14.28984 37415 ft 397 kts 53°
2026-04-30 21:03 47.65515 14.35745 37425 ft 398 kts 53°
2026-04-30 21:04 47.68639 14.42520 37456 ft 398 kts 53°
2026-04-30 21:04 47.73331 14.52730 37434 ft 399 kts 53°
2026-04-30 21:05 47.76460 14.59558 37435 ft 399 kts 53°
2026-04-30 21:05 47.79585 14.66392 37422 ft 400 kts 53°
2026-04-30 21:06 47.82704 14.73232 37429 ft 399 kts 53°
2026-04-30 21:06 47.85816 14.80074 37420 ft 399 kts 53°
2026-04-30 21:07 47.88915 14.86905 37418 ft 397 kts 53°
2026-04-30 21:07 47.92000 14.93723 37437 ft 396 kts 54°
2026-04-30 21:08 47.95027 15.00429 37455 ft 396 kts 54°
2026-04-30 21:08 47.98082 15.07212 37438 ft 397 kts 54°
2026-04-30 21:09 48.01148 15.14037 37434 ft 397 kts 54°
2026-04-30 21:09 48.04225 15.20905 37440 ft 398 kts 54°
2026-04-30 21:10 48.07302 15.27788 37426 ft 398 kts 54°
2026-04-30 21:10 48.10376 15.34684 37427 ft 398 kts 54°
2026-04-30 21:11 48.12924 15.40413 37430 ft 398 kts 54°
2026-04-30 21:11 48.15981 15.47304 37427 ft 397 kts 54°
2026-04-30 21:12 48.19032 15.54197 37426 ft 396 kts 54°
2026-04-30 21:12 48.22076 15.61091 37428 ft 397 kts 54°
2026-04-30 21:13 48.25114 15.67992 37434 ft 396 kts 54°
2026-04-30 21:13 48.28147 15.74897 37419 ft 396 kts 54°
2026-04-30 21:14 48.31172 15.81801 37412 ft 395 kts 54°
2026-04-30 21:14 48.34190 15.88706 37415 ft 395 kts 54°
2026-04-30 21:15 48.37198 15.95608 37422 ft 394 kts 54°
2026-04-30 21:15 48.40142 16.02380 37404 ft 394 kts 54°
2026-04-30 21:16 48.43130 16.09269 37406 ft 392 kts 54°
2026-04-30 21:16 48.46087 16.16105 37411 ft 392 kts 54°
2026-04-30 21:17 48.49059 16.22991 37414 ft 392 kts 54°
2026-04-30 21:17 48.52003 16.29834 37094 ft 387 kts 54°
2026-04-30 21:18 48.53466 16.33243 36831 ft 378 kts 54°
2026-04-30 21:18 48.54876 16.36533 36574 ft 370 kts 54°
2026-04-30 21:18 48.56258 16.39760 36320 ft 362 kts 54°
2026-04-30 21:18 48.57616 16.42935 36075 ft 358 kts 54°
2026-04-30 21:19 48.58961 16.46078 35832 ft 355 kts 54°
2026-04-30 21:19 48.60294 16.49199 35583 ft 352 kts 54°
2026-04-30 21:19 48.61615 16.52295 35351 ft 349 kts 54°
2026-04-30 21:19 48.62934 16.55387 35111 ft 352 kts 54°
2026-04-30 21:20 48.64264 16.58511 34892 ft 355 kts 54°
2026-04-30 21:20 48.65585 16.61617 34664 ft 355 kts 54°
2026-04-30 21:20 48.66915 16.64753 34424 ft 353 kts 54°
2026-04-30 21:20 48.68233 16.67863 34154 ft 350 kts 54°
2026-04-30 21:21 48.69546 16.70961 33876 ft 348 kts 54°
2026-04-30 21:21 48.70847 16.74036 33605 ft 346 kts 54°
2026-04-30 21:21 48.73497 16.80114 33436 ft 348 kts 51°
2026-04-30 21:22 48.74991 16.83027 33413 ft 352 kts 50°
2026-04-30 21:23 48.81078 16.94651 33398 ft 350 kts 50°
2026-04-30 21:23 48.85560 17.03286 33401 ft 349 kts 50°
2026-04-30 21:24 48.88534 17.09043 33399 ft 349 kts 50°
2026-04-30 21:24 48.91524 17.14847 33398 ft 349 kts 50°
2026-04-30 21:25 48.95998 17.23559 33402 ft 348 kts 50°
2026-04-30 21:26 49.00456 17.32268 33401 ft 348 kts 50°
2026-04-30 21:27 49.04910 17.40995 33405 ft 348 kts 50°
2026-04-30 21:27 49.07872 17.46814 33407 ft 347 kts 51°
2026-04-30 21:28 49.12301 17.55542 33406 ft 346 kts 51°
2026-04-30 21:29 49.16708 17.64253 33403 ft 345 kts 51°
2026-04-30 21:30 49.24019 17.78768 33410 ft 344 kts 51°
2026-04-30 21:31 49.31275 17.93254 33396 ft 340 kts 51°
2026-04-30 21:32 49.35527 18.01780 33411 ft 338 kts 51°
2026-04-30 21:32 49.38376 18.07510 33402 ft 337 kts 51°
2026-04-30 21:33 49.39773 18.10323 33394 ft 325 kts 51°
2026-04-30 21:33 49.42481 18.15785 33065 ft 317 kts 51°
2026-04-30 21:33 49.43810 18.18469 32671 ft 313 kts 51°
2026-04-30 21:34 49.45115 18.21107 32356 ft 308 kts 51°
2026-04-30 21:34 49.47670 18.26279 31683 ft 300 kts 51°
2026-04-30 21:34 49.48921 18.28816 31335 ft 296 kts 51°
2026-04-30 21:35 49.50153 18.31318 31022 ft 292 kts 51°
2026-04-30 21:35 49.51375 18.33800 30690 ft 290 kts 52°
2026-04-30 21:35 49.52571 18.36232 30350 ft 286 kts 52°
2026-04-30 21:35 49.53765 18.38661 29989 ft 283 kts 52°
2026-04-30 21:36 49.54940 18.41056 29641 ft 278 kts 52°
2026-04-30 21:36 49.56093 18.43407 29327 ft 272 kts 52°
2026-04-30 21:37 49.59452 18.50268 28352 ft 262 kts 51°
2026-04-30 21:37 49.60546 18.52507 27986 ft 261 kts 51°
2026-04-30 21:37 49.61627 18.54721 27649 ft 257 kts 52°
2026-04-30 21:37 49.62697 18.56917 27406 ft 258 kts 51°
2026-04-30 21:38 49.63807 18.59189 27056 ft 273 kts 51°
2026-04-30 21:38 49.64973 18.61577 26706 ft 282 kts 51°
2026-04-30 21:38 49.66149 18.63994 26344 ft 281 kts 51°
2026-04-30 21:38 49.67315 18.66393 25996 ft 278 kts 51°
2026-04-30 21:39 49.68441 18.68816 25593 ft 279 kts 57°
2026-04-30 21:39 49.69297 18.71533 25101 ft 284 kts 63°
2026-04-30 21:39 49.70026 18.74382 24667 ft 286 kts 64°
2026-04-30 21:39 49.70738 18.77253 24270 ft 286 kts 64°
2026-04-30 21:40 49.71460 18.80178 23466 ft 297 kts 64°
2026-04-30 21:40 49.72208 18.83203 22698 ft 306 kts 64°
2026-04-30 21:40 49.72977 18.86312 21903 ft 314 kts 65°
2026-04-30 21:40 49.73764 18.89493 21137 ft 321 kts 65°
2026-04-30 21:41 49.74574 18.92761 20228 ft 330 kts 65°
2026-04-30 21:41 49.75404 18.96117 19393 ft 339 kts 65°
2026-04-30 21:41 49.76244 18.99512 18526 ft 347 kts 65°
2026-04-30 21:41 49.77081 19.02900 17679 ft 352 kts 65°
2026-04-30 21:42 49.77950 19.06432 17021 ft 351 kts 65°
2026-04-30 21:42 49.78815 19.09951 16341 ft 349 kts 66°
2026-04-30 21:42 49.79675 19.13455 15806 ft 346 kts 66°
2026-04-30 21:42 49.80522 19.16913 15301 ft 341 kts 66°
2026-04-30 21:43 49.81359 19.20330 14810 ft 337 kts 66°
2026-04-30 21:43 49.82187 19.23713 14320 ft 334 kts 66°
2026-04-30 21:43 49.83008 19.27068 13755 ft 333 kts 66°
2026-04-30 21:43 49.83832 19.30433 13081 ft 335 kts 66°
2026-04-30 21:44 49.84663 19.33837 12563 ft 332 kts 66°
2026-04-30 21:44 49.85462 19.37117 12106 ft 328 kts 66°
2026-04-30 21:44 49.86261 19.40402 11661 ft 324 kts 66°
2026-04-30 21:44 49.87051 19.43656 11218 ft 321 kts 66°
2026-04-30 21:45 49.87830 19.46870 10874 ft 315 kts 66°
2026-04-30 21:45 49.88588 19.50007 10625 ft 307 kts 66°
2026-04-30 21:45 49.89325 19.53057 10448 ft 297 kts 66°
2026-04-30 21:45 49.90032 19.55989 10389 ft 284 kts 66°
2026-04-30 21:46 49.90704 19.58782 10384 ft 270 kts 66°
2026-04-30 21:46 49.91344 19.61441 10383 ft 257 kts 66°
2026-04-30 21:46 49.91965 19.64023 10169 ft 256 kts 66°
2026-04-30 21:46 49.92593 19.66627 9762 ft 259 kts 66°
2026-04-30 21:47 49.93226 19.69255 9380 ft 261 kts 66°
2026-04-30 21:47 49.93859 19.71893 9047 ft 260 kts 66°
2026-04-30 21:47 49.94489 19.74521 8718 ft 260 kts 66°
2026-04-30 21:47 49.95116 19.77140 8409 ft 259 kts 67°
2026-04-30 21:48 49.95741 19.79759 8092 ft 258 kts 67°
2026-04-30 21:48 49.96363 19.82368 7774 ft 258 kts 67°
2026-04-30 21:48 49.96987 19.84983 7427 ft 259 kts 67°
2026-04-30 21:48 49.97611 19.87606 7099 ft 259 kts 67°
2026-04-30 21:49 49.98236 19.90235 6780 ft 259 kts 67°
2026-04-30 21:49 49.98858 19.92855 6468 ft 258 kts 67°
2026-04-30 21:49 49.99477 19.95467 6148 ft 257 kts 67°
2026-04-30 21:49 50.00091 19.98059 5875 ft 256 kts 67°
2026-04-30 21:50 50.00567 20.00067 5656 ft 255 kts 67°
2026-04-30 21:50 50.01078 20.02232 5429 ft 253 kts 67°
2026-04-30 21:50 50.01673 20.04756 5323 ft 245 kts 67°
2026-04-30 21:50 50.02250 20.07204 5209 ft 237 kts 67°
2026-04-30 21:51 50.02941 20.09450 5089 ft 225 kts 47°
2026-04-30 21:51 50.04176 20.10777 4955 ft 215 kts 18°
2026-04-30 21:51 50.05624 20.11150 4758 ft 211 kts 357°
2026-04-30 21:51 50.07040 20.10777 4590 ft 206 kts 349°
2026-04-30 21:52 50.08426 20.10315 4453 ft 206 kts 349°
2026-04-30 21:52 50.09831 20.09824 4222 ft 207 kts 343°
2026-04-30 21:52 50.11001 20.08588 4054 ft 203 kts 307°
2026-04-30 21:52 50.11495 20.06613 4020 ft 194 kts 278°
2026-04-30 21:53 50.11412 20.04587 3967 ft 183 kts 264°
2026-04-30 21:53 50.11161 20.02638 3779 ft 185 kts 261°
2026-04-30 21:53 50.10884 20.00689 3533 ft 184 kts 261°
2026-04-30 21:53 50.10610 19.98757 3286 ft 181 kts 261°
2026-04-30 21:54 50.10340 19.96850 3025 ft 179 kts 261°
2026-04-30 21:54 50.10077 19.94977 2798 ft 177 kts 260°
2026-04-30 21:54 50.09814 19.93103 2560 ft 178 kts 260°
2026-04-30 21:54 50.09550 19.91221 2304 ft 177 kts 260°
2026-04-30 21:55 50.09293 19.89390 2057 ft 168 kts 259°
2026-04-30 21:55 50.09056 19.87697 1824 ft 154 kts 259°
2026-04-30 21:55 50.08833 19.86093 1629 ft 151 kts 258°
2026-04-30 21:55 50.08610 19.84492 1413 ft 152 kts 258°
2026-04-30 21:56 50.08394 19.82876 1211 ft 151 kts 257°
2026-04-30 21:56 50.08168 19.81282 1003 ft 150 kts 257°
2026-04-30 21:56 50.07946 19.79712 817 ft 147 kts 257°
2026-04-30 21:56 50.07755 19.78346 800 ft 101 kts 257°
2026-04-30 21:57 50.07644 19.77549 798 ft 55 kts 258°
2026-04-30 21:57 50.07587 19.77142 802 ft 28 kts 258°
2026-04-30 21:57 50.07551 19.76885 801 ft 9 kts 257°
2026-04-30 21:57 50.07516 19.76838 801 ft 7 kts 183°
2026-04-30 21:58 50.07463 19.76848 800 ft 10 kts 171°
2026-04-30 21:58 50.07412 19.76865 799 ft 12 kts 167°
2026-04-30 21:58 50.07336 19.76892 799 ft 8 kts 165°
2026-04-30 21:58 50.07307 19.76955 799 ft 8 kts 92°
2026-04-30 21:59 50.07319 19.77045 799 ft 9 kts 78°
2026-04-30 21:59 50.07334 19.77156 799 ft 12 kts 78°
2026-04-30 21:59 50.07353 19.77298 799 ft 15 kts 78°
2026-04-30 22:00 50.07406 19.77677 799 ft 21 kts 78°
2026-04-30 22:00 50.07471 19.78153 799 ft 23 kts 78°
2026-04-30 22:00 50.07504 19.78393 799 ft 22 kts 78°
2026-04-30 22:01 50.07535 19.78626 799 ft 22 kts 78°
2026-04-30 22:01 50.07566 19.78852 799 ft 21 kts 78°
2026-04-30 22:01 50.07594 19.79043 799 ft 15 kts 77°
2026-04-30 22:01 50.07617 19.79198 799 ft 14 kts 77°
2026-04-30 22:02 50.07639 19.79346 799 ft 14 kts 77°
2026-04-30 22:02 50.07660 19.79487 799 ft 13 kts 77°
2026-04-30 22:02 50.07679 19.79623 799 ft 13 kts 78°
2026-04-30 22:02 50.07697 19.79756 799 ft 12 kts 78°
2026-04-30 22:03 50.07707 19.79853 799 ft 5 kts 105°
2026-04-30 22:03 50.07674 19.79878 799 ft 5 kts 166°
2026-04-30 22:03 50.07632 19.79894 799 ft 7 kts 166°
2026-04-30 22:03 50.07576 19.79914 799 ft 9 kts 168°
2026-04-30 22:04 50.07518 19.79933 799 ft 9 kts 168°
2026-04-30 22:04 50.07453 19.79955 799 ft 10 kts 168°
2026-04-30 22:04 50.07404 19.80062 799 ft 8 kts 78°
2026-04-30 22:05 50.07414 19.80141 799 ft 6 kts 88°
2026-04-30 22:05 50.07381 19.80176 799 ft 6 kts 170°
2026-04-30 22:05 50.07343 19.80190 799 ft 2 kts 168°
2026-04-30 22:05 50.07338 19.80191 799 ft 0 kts 168°
2026-04-30 22:08 50.07360 19.80242 788 ft 0 kts 168°
2026-04-30 22:10 50.07338 19.80191 799 ft 0 kts 168°